Brandon, TX

4:24 PM CDT on August 28, 2016 (GMT -0500)
Hillsboro

Weather History for KINJ - August, 2013

Change the Weather History Date:

Saturday, August 31, 2013

  Actual Average (KACT) Record (KACT)
Temperature  
Mean Temperature 90 °F 83 °F  
Max Temperature 103 °F 95 °F 109 °F (1990)
Min Temperature 77 °F 72 °F 58 °F (1915)
Degree Days  
Heating Degree Days 0 0  
Month to date heating degree days 0  
Since 1 June heating degree days 0  
Since 1 July heating degree days 0  
Cooling Degree Days 25 18  
Month to date cooling degree days 629  
Year to date cooling degree days 2195  
Since 1 June cooling degree days 1743  
Growing Degree Days 40 (Base 50)    
Moisture  
Dew Point 61 °F    
Average Humidity 40    
Maximum Humidity 69    
Minimum Humidity 22    
Precipitation  
Precipitation 0.00 in 0.09 in 1.27 in (1959)
Month to date precipitation 2.05  
Year to date precipitation 22.16  
Sea Level Pressure  
Sea Level Pressure 29.87 in    
Wind  
Wind Speed 8 mph (SSE)    
Max Wind Speed 12 mph    
Max Gust Speed 16 mph    
Visibility 10 miles    
Events      
T = Trace of Precipitation, MM = Missing Value Source: NWS Daily Summary

Daily Weather History Graph

Daily Weather History Graph

Search for Another Location

Airport or City:

Trip Planner

Search our weather history database for the weather conditions in past years. The results will help you decide how hot, cold, wet, or windy it might be!

Date:

Astronomy

Aug. 31, 2013 Rise Set
Actual Time 7:03 AM CDT 7:53 PM CDT
Civil Twilight 6:38 AM CDT 8:18 PM CDT
Nautical Twilight 6:08 AM CDT 8:47 PM CDT
Astronomical Twilight 5:38 AM CDT 9:17 PM CDT
Moon 2:43 AM CDT (8/31) 4:43 PM CDT (8/31)
Length of Visible Light 13h 40m
Length of Day
12h 50m
Waning Crescent, 21% of the Moon is Illuminated
Aug 31
Waning Crescent
Sep 5
New
Sep 12
First Quarter
Sep 19
Full
Sep 26
Last Quarter

Hourly Weather History & Observations

Time (CDT) Temp. Heat Index Dew Point Humidity Pressure Visibility Wind Dir Wind Speed Gust Speed Precip Events Conditions
12:15 AM 87.8 °F 86.5 °F 56.8 °F 35% 29.89 in 10.0 mi ESE 9.2 mph - N/A   Clear
12:35 AM 88.0 °F 86.5 °F 56.1 °F 34% 29.88 in 10.0 mi ESE 9.2 mph - N/A   Clear
12:55 AM 88.0 °F 86.5 °F 56.3 °F 34% 29.88 in 10.0 mi ESE 8.1 mph - N/A   Clear
1:15 AM 87.1 °F 85.7 °F 56.7 °F 35% 29.88 in 10.0 mi ESE 8.1 mph - N/A   Clear
1:35 AM 86.9 °F 85.9 °F 57.9 °F 37% 29.89 in 10.0 mi SE 10.4 mph - N/A   Clear
1:55 AM 85.5 °F 84.8 °F 58.8 °F 40% 29.89 in 10.0 mi SE 9.2 mph - N/A   Clear
2:15 AM 84.2 °F 84.2 °F 59.9 °F 44% 29.89 in 10.0 mi SE 9.2 mph - N/A   Clear
2:35 AM 83.8 °F 84.3 °F 61.5 °F 47% 29.89 in 10.0 mi SSE 11.5 mph - N/A   Clear
2:55 AM 84.2 °F 85.2 °F 63.0 °F 49% 29.90 in 10.0 mi South 11.5 mph - N/A   Clear
3:15 AM 83.5 °F 84.5 °F 63.3 °F 50% 29.90 in 10.0 mi South 10.4 mph - N/A   Clear
3:35 AM 82.8 °F 84.0 °F 63.7 °F 52% 29.90 in 10.0 mi South 8.1 mph - N/A   Clear
3:55 AM 81.7 °F 83.2 °F 63.9 °F 55% 29.90 in 10.0 mi SSE 8.1 mph - N/A   Clear
4:15 AM 81.5 °F 83.1 °F 64.4 °F 56% 29.90 in 10.0 mi South 8.1 mph - N/A   Clear
4:35 AM 80.8 °F 82.5 °F 64.8 °F 58% 29.91 in 10.0 mi South 8.1 mph - N/A   Clear
4:55 AM 80.6 °F 82.4 °F 65.3 °F 59% 29.91 in 10.0 mi SSE 8.1 mph - N/A   Clear
5:15 AM 80.6 °F 82.4 °F 65.3 °F 59% 29.90 in 10.0 mi SSE 6.9 mph - N/A   Clear
5:35 AM 80.1 °F 82.1 °F 66.0 °F 62% 29.91 in 10.0 mi SSE 5.8 mph - N/A   Clear
5:55 AM 79.3 °F - 66.2 °F 64% 29.90 in 10.0 mi South 5.8 mph - N/A   Clear
6:15 AM 79.0 °F - 66.6 °F 66% 29.91 in 10.0 mi South 6.9 mph - N/A   Clear
6:35 AM 78.8 °F - 66.7 °F 66% 29.91 in 10.0 mi South 6.9 mph - N/A   Clear
6:55 AM 78.1 °F - 66.7 °F 68% 29.91 in 10.0 mi South 8.1 mph - N/A   Clear
7:15 AM 77.9 °F - 67.1 °F 69% 29.92 in 10.0 mi South 8.1 mph - N/A   Clear
7:35 AM 78.4 °F - 67.5 °F 69% 29.92 in 10.0 mi South 6.9 mph - N/A   Clear
7:55 AM 79.2 °F - 67.8 °F 68% 29.93 in 10.0 mi South 8.1 mph - N/A   Clear
8:15 AM 80.4 °F 83.1 °F 68.0 °F 66% 29.93 in 10.0 mi South 6.9 mph - N/A   Clear
8:35 AM 81.7 °F 84.5 °F 68.0 °F 63% 29.93 in 10.0 mi South 9.2 mph - N/A   Clear
8:55 AM 82.6 °F 85.5 °F 67.8 °F 61% 29.93 in 10.0 mi South 9.2 mph - N/A   Clear
9:15 AM 84.0 °F 86.8 °F 67.5 °F 57% 29.93 in 10.0 mi South 9.2 mph - N/A   Clear
9:35 AM 85.5 °F 88.2 °F 67.1 °F 54% 29.93 in 10.0 mi South 8.1 mph - N/A   Clear
9:55 AM 86.9 °F 89.6 °F 66.7 °F 51% 29.93 in 10.0 mi South 6.9 mph - N/A   Clear
10:15 AM 88.3 °F 90.5 °F 66.0 °F 47% 29.93 in 10.0 mi SSW 9.2 mph - N/A   Clear
10:35 AM 89.1 °F 91.7 °F 66.2 °F 47% 29.93 in 10.0 mi South 6.9 mph - N/A   Clear
10:55 AM 91.4 °F 94.0 °F 66.0 °F 43% 29.92 in 10.0 mi SSW 5.8 mph - N/A   Clear
11:15 AM 93.2 °F 95.3 °F 64.8 °F 39% 29.92 in 10.0 mi SSE 6.9 mph - N/A   Clear
11:35 AM 94.6 °F 96.8 °F 64.8 °F 37% 29.91 in 10.0 mi SSW 8.1 mph - N/A   Clear
11:55 AM 96.1 °F 98.3 °F 64.2 °F 35% 29.91 in 10.0 mi Calm Calm - N/A   Clear
12:15 PM 96.8 °F 98.5 °F 63.1 °F 33% 29.91 in 10.0 mi SSW 3.5 mph - N/A   Clear
12:35 PM 97.3 °F 98.4 °F 62.1 °F 31% 29.90 in 10.0 mi Calm Calm - N/A   Clear
12:55 PM 99.7 °F 98.7 °F 57.4 °F 24% 29.89 in 10.0 mi South 3.5 mph - N/A   Clear
1:15 PM 100.9 °F 101.6 °F 59.9 °F 26% 29.88 in 10.0 mi WSW 8.1 mph - N/A   Clear
1:35 PM 100.6 °F 101.0 °F 59.4 °F 26% 29.88 in 10.0 mi ESE 6.9 mph - N/A   Clear
1:55 PM 100.6 °F 100.5 °F 59.0 °F 25% 29.87 in 10.0 mi South 3.5 mph - N/A   Clear
2:15 PM 100.8 °F 100.8 °F 58.6 °F 25% 29.86 in 10.0 mi SSE 4.6 mph - N/A   Clear
2:35 PM 102.2 °F 102.4 °F 59.0 °F 24% 29.85 in 10.0 mi WSW 4.6 mph - N/A   Clear
2:55 PM 102.2 °F 101.9 °F 58.3 °F 23% 29.85 in 10.0 mi Calm Calm - N/A   Clear
3:15 PM 103.1 °F 103.3 °F 58.1 °F 23% 29.84 in 10.0 mi South 5.8 mph - N/A   Scattered Clouds
3:35 PM 102.4 °F 102.2 °F 57.4 °F 23% 29.83 in 10.0 mi ESE 9.2 mph 12.7 mph N/A   Scattered Clouds
3:55 PM 100.4 °F 99.7 °F 57.4 °F 24% 29.83 in 10.0 mi ENE 5.8 mph - N/A   Clear
4:15 PM 103.1 °F 102.7 °F 57.6 °F 22% 29.82 in 10.0 mi SE 8.1 mph - N/A   Clear
4:35 PM 102.0 °F 101.1 °F 57.0 °F 22% 29.82 in 10.0 mi Calm Calm - N/A   Clear
4:55 PM 100.6 °F 99.5 °F 57.0 °F 23% 29.82 in 10.0 mi SE 6.9 mph - N/A   Scattered Clouds
5:15 PM 101.7 °F 101.1 °F 57.4 °F 23% 29.81 in 10.0 mi ESE 10.4 mph 16.1 mph N/A   Scattered Clouds
5:35 PM 102.4 °F 101.6 °F 56.8 °F 22% 29.81 in 10.0 mi ESE 10.4 mph 16.1 mph N/A   Scattered Clouds
5:55 PM 101.7 °F 101.1 °F 56.8 °F 23% 29.80 in 10.0 mi East 10.4 mph - N/A   Clear
6:15 PM 101.8 °F 100.8 °F 56.7 °F 22% 29.81 in 10.0 mi ESE 9.2 mph - N/A   Clear
6:35 PM 100.8 °F 99.8 °F 56.3 °F 23% 29.80 in 10.0 mi ESE 6.9 mph - N/A   Clear
6:55 PM 100.6 °F 99.1 °F 55.8 °F 22% 29.80 in 10.0 mi ESE 8.1 mph - N/A   Clear
7:15 PM 99.9 °F 98.5 °F 55.9 °F 23% 29.81 in 10.0 mi SE 6.9 mph - N/A   Clear
7:35 PM 98.4 °F 96.9 °F 56.3 °F 24% 29.81 in 10.0 mi SE 5.8 mph - N/A   Clear
7:55 PM 96.8 °F 95.1 °F 55.9 °F 25% 29.82 in 10.0 mi SE 6.9 mph - N/A   Clear
8:15 PM 95.2 °F 93.6 °F 56.7 °F 27% 29.82 in 10.0 mi SE 6.9 mph - N/A   Clear
8:35 PM 94.1 °F 92.8 °F 57.4 °F 29% 29.82 in 10.0 mi SE 6.9 mph - N/A   Clear
8:55 PM 93.6 °F 92.4 °F 57.4 °F 30% 29.82 in 10.0 mi SSE 6.9 mph - N/A   Clear
9:15 PM 92.7 °F 91.5 °F 57.7 °F 31% 29.83 in 10.0 mi SE 6.9 mph - N/A   Clear
9:35 PM 91.8 °F 90.6 °F 58.3 °F 32% 29.83 in 10.0 mi SE 6.9 mph - N/A   Clear
9:55 PM 91.4 °F 90.4 °F 58.6 °F 33% 29.84 in 10.0 mi ESE 8.1 mph - N/A   Clear
10:15 PM 90.9 °F 90.0 °F 59.0 °F 34% 29.84 in 10.0 mi SE 9.2 mph - N/A   Clear
10:35 PM 90.5 °F 89.8 °F 59.0 °F 35% 29.84 in 10.0 mi SE 9.2 mph - N/A   Clear
10:55 PM 90.0 °F 89.4 °F 59.4 °F 36% 29.84 in 10.0 mi SSE 9.2 mph - N/A   Clear
11:15 PM 89.2 °F 88.7 °F 60.1 °F 37% 29.84 in 10.0 mi SE 6.9 mph - N/A   Clear
11:35 PM 88.7 °F 88.6 °F 60.6 °F 39% 29.83 in 10.0 mi SE 6.9 mph - N/A   Clear
11:55 PM 88.2 °F 88.1 °F 60.8 °F 40% 29.83 in 10.0 mi SSE 8.1 mph - N/A   Clear